Time,TemperatureF,DewpointF,PressureIn,WindDirection,WindDirectionDegrees,WindSpeedMPH,WindSpeedGustMPH,Humidity,HourlyPrecipIn,Conditions,Clouds,dailyrainin,SoftwareType,DateUTC
2013-03-14 00:00:00,52.0,27.1,30.11,WNW,291,0.0,1.0,38,0.00,,,0.00,Wunderground v.1.15,2013-03-14 04:00:00,
2013-03-14 00:01:00,52.0,27.8,30.11,WNW,291,0.0,1.0,39,0.00,,,0.00,Wunderground v.1.15,2013-03-14 04:01:00,
2013-03-14 00:02:00,52.0,27.8,30.11,WNW,291,0.0,1.0,39,0.00,,,0.00,Wunderground v.1.15,2013-03-14 04:02:00,
2013-03-14 00:05:00,52.0,27.8,30.11,West,276,1.0,2.0,39,0.00,,,0.00,Wunderground v.1.15,2013-03-14 04:05:00,
2013-03-14 00:10:00,51.9,27.7,30.11,West,260,0.0,1.0,39,0.00,,,0.00,Wunderground v.1.15,2013-03-14 04:10:00,
2013-03-14 00:16:00,51.7,27.5,30.11,WNW,294,0.0,1.0,39,0.00,,,0.00,Wunderground v.1.15,2013-03-14 04:16:00,
2013-03-14 00:22:00,51.7,26.9,30.11,WNW,303,0.0,1.0,38,0.00,,,0.00,Wunderground v.1.15,2013-03-14 04:22:00,
2013-03-14 00:28:00,51.6,27.4,30.11,WSW,255,0.0,2.0,39,0.00,,,0.00,Wunderground v.1.15,2013-03-14 04:28:00,
2013-03-14 00:33:00,51.4,27.2,30.12,WNW,290,0.0,1.0,39,0.00,,,0.00,Wunderground v.1.15,2013-03-14 04:33:00,
2013-03-14 00:39:00,51.3,27.8,30.12,WNW,290,1.0,1.0,40,0.00,,,0.00,Wunderground v.1.15,2013-03-14 04:39:00,
2013-03-14 00:45:00,51.1,27.6,30.12,WSW,243,2.0,2.0,40,0.00,,,0.00,Wunderground v.1.15,2013-03-14 04:45:00,
2013-03-14 00:50:00,51.0,26.9,30.12,West,279,0.0,0.0,39,0.00,,,0.00,Wunderground v.1.15,2013-03-14 04:50:00,
2013-03-14 00:55:00,50.8,27.9,30.12,West,279,0.0,0.0,41,0.00,,,0.00,Wunderground v.1.15,2013-03-14 04:55:00,
2013-03-14 01:00:00,50.7,27.2,30.12,WNW,303,1.0,1.0,40,0.00,,,0.00,Wunderground v.1.15,2013-03-14 05:00:00,
2013-03-14 01:06:00,50.5,27.7,30.12,WNW,303,0.0,1.0,41,0.00,,,0.00,Wunderground v.1.15,2013-03-14 05:06:00,
2013-03-14 01:12:00,50.4,27.6,30.12,WNW,303,0.0,0.0,41,0.00,,,0.00,Wunderground v.1.15,2013-03-14 05:12:00,
2013-03-14 01:18:00,50.1,28.4,30.13,WNW,303,0.0,0.0,43,0.00,,,0.00,Wunderground v.1.15,2013-03-14 05:18:00,
2013-03-14 01:24:00,49.9,28.3,30.13,WNW,303,0.0,0.0,43,0.00,,,0.00,Wunderground v.1.15,2013-03-14 05:24:00,
2013-03-14 01:30:00,49.8,28.7,30.13,WNW,303,0.0,0.0,44,0.00,,,0.00,Wunderground v.1.15,2013-03-14 05:30:00,
2013-03-14 01:36:00,49.6,28.6,30.13,NW,304,0.0,1.0,44,0.00,,,0.00,Wunderground v.1.15,2013-03-14 05:36:00,
2013-03-14 01:42:00,49.5,28.5,30.13,NW,304,1.0,1.0,44,0.00,,,0.00,Wunderground v.1.15,2013-03-14 05:42:00,
2013-03-14 01:48:00,49.4,28.4,30.13,NW,307,2.0,2.0,44,0.00,,,0.00,Wunderground v.1.15,2013-03-14 05:48:00,
2013-03-14 01:54:00,49.2,28.2,30.13,ESE,119,0.0,1.0,44,0.00,,,0.00,Wunderground v.1.15,2013-03-14 05:54:00,
2013-03-14 02:00:00,49.1,28.1,30.14,West,273,0.0,0.0,44,0.00,,,0.00,Wunderground v.1.15,2013-03-14 06:00:00,
2013-03-14 02:05:00,48.9,27.4,30.14,West,273,1.0,4.0,43,0.00,,,0.00,Wunderground v.1.15,2013-03-14 06:05:00,
2013-03-14 02:10:00,48.8,27.3,30.14,WSW,257,0.0,1.0,43,0.00,,,0.00,Wunderground v.1.15,2013-03-14 06:10:00,
2013-03-14 02:15:00,48.6,27.1,30.15,SW,225,0.0,2.0,43,0.00,,,0.00,Wunderground v.1.15,2013-03-14 06:15:00,
2013-03-14 02:20:00,48.5,27.6,30.15,NW,317,0.0,1.0,44,0.00,,,0.00,Wunderground v.1.15,2013-03-14 06:20:00,
2013-03-14 02:25:00,48.2,26.7,30.15,SE,128,0.0,5.0,43,0.00,,,0.00,Wunderground v.1.15,2013-03-14 06:25:00,
2013-03-14 02:30:00,48.0,26.5,30.15,North,356,0.0,1.0,43,0.00,,,0.00,Wunderground v.1.15,2013-03-14 06:30:00,
2013-03-14 02:35:00,47.9,25.9,30.15,West,259,0.0,2.0,42,0.00,,,0.00,Wunderground v.1.15,2013-03-14 06:35:00,
2013-03-14 02:40:00,47.7,25.1,30.15,SW,214,0.0,3.0,41,0.00,,,0.00,Wunderground v.1.15,2013-03-14 06:40:00,
2013-03-14 02:45:00,47.6,25.6,30.16,WNW,298,0.0,3.0,42,0.00,,,0.00,Wunderground v.1.15,2013-03-14 06:45:00,
2013-03-14 02:50:00,47.4,26.0,30.16,WNW,298,0.0,0.0,43,0.00,,,0.00,Wunderground v.1.15,2013-03-14 06:50:00,
2013-03-14 02:55:00,47.3,26.5,30.16,WNW,294,0.0,2.0,44,0.00,,,0.00,Wunderground v.1.15,2013-03-14 06:55:00,
2013-03-14 03:01:00,47.0,26.2,30.17,ESE,105,1.0,1.0,44,0.00,,,0.00,Wunderground v.1.15,2013-03-14 07:01:00,
2013-03-14 03:06:00,46.7,25.9,30.17,NW,314,0.0,2.0,44,0.00,,,0.00,Wunderground v.1.15,2013-03-14 07:06:00,
2013-03-14 03:11:00,46.5,25.2,30.17,WNW,301,1.0,2.0,43,0.00,,,0.00,Wunderground v.1.15,2013-03-14 07:11:00,
2013-03-14 03:16:00,46.4,25.6,30.18,NW,310,0.0,2.0,44,0.00,,,0.00,Wunderground v.1.15,2013-03-14 07:16:00,
2013-03-14 03:21:00,46.1,24.8,30.18,West,281,1.0,1.0,43,0.00,,,0.00,Wunderground v.1.15,2013-03-14 07:21:00,
2013-03-14 03:26:00,46.0,24.7,30.18,NW,305,0.0,2.0,43,0.00,,,0.00,Wunderground v.1.15,2013-03-14 07:26:00,
2013-03-14 03:31:00,45.8,25.1,30.17,NW,305,1.0,2.0,44,0.00,,,0.00,Wunderground v.1.15,2013-03-14 07:31:00,
2013-03-14 03:36:00,45.5,24.8,30.17,WNW,297,2.0,2.0,44,0.00,,,0.00,Wunderground v.1.15,2013-03-14 07:36:00,
2013-03-14 03:41:00,45.4,24.7,30.17,NW,315,0.0,0.0,44,0.00,,,0.00,Wunderground v.1.15,2013-03-14 07:41:00,
2013-03-14 03:46:00,45.2,25.1,30.18,NW,317,0.0,1.0,45,0.00,,,0.00,Wunderground v.1.15,2013-03-14 07:46:00,
2013-03-14 03:51:00,45.2,25.1,30.18,NW,304,0.0,0.0,45,0.00,,,0.00,Wunderground v.1.15,2013-03-14 07:51:00,
2013-03-14 03:56:00,45.1,25.0,30.18,NW,305,0.0,1.0,45,0.00,,,0.00,Wunderground v.1.15,2013-03-14 07:56:00,
2013-03-14 04:01:00,44.8,25.3,30.18,NW,305,0.0,0.0,46,0.00,,,0.00,Wunderground v.1.15,2013-03-14 08:01:00,
2013-03-14 04:07:00,44.6,25.6,30.18,NW,305,0.0,0.0,47,0.00,,,0.00,Wunderground v.1.15,2013-03-14 08:07:00,
2013-03-14 04:12:00,44.5,26.0,30.18,NW,305,0.0,0.0,48,0.00,,,0.00,Wunderground v.1.15,2013-03-14 08:12:00,
2013-03-14 04:17:00,44.2,26.2,30.18,NW,305,0.0,0.0,49,0.00,,,0.00,Wunderground v.1.15,2013-03-14 08:17:00,
2013-03-14 04:22:00,44.1,26.1,30.18,NW,305,0.0,0.0,49,0.00,,,0.00,Wunderground v.1.15,2013-03-14 08:22:00,
2013-03-14 04:27:00,43.8,25.4,30.18,West,270,0.0,2.0,48,0.00,,,0.00,Wunderground v.1.15,2013-03-14 08:27:00,
2013-03-14 04:32:00,43.6,25.2,30.18,ESE,121,1.0,2.0,48,0.00,,,0.00,Wunderground v.1.15,2013-03-14 08:32:00,
2013-03-14 04:37:00,43.5,24.6,30.18,WNW,301,0.0,3.0,47,0.00,,,0.00,Wunderground v.1.15,2013-03-14 08:37:00,
2013-03-14 04:42:00,43.3,24.9,30.18,NW,305,0.0,1.0,48,0.00,,,0.00,Wunderground v.1.15,2013-03-14 08:42:00,
2013-03-14 04:47:00,43.3,24.9,30.18,East,98,0.0,2.0,48,0.00,,,0.00,Wunderground v.1.15,2013-03-14 08:47:00,
2013-03-14 04:52:00,43.2,24.8,30.18,East,99,0.0,0.0,48,0.00,,,0.00,Wunderground v.1.15,2013-03-14 08:52:00,
2013-03-14 04:57:00,43.1,24.7,30.18,East,97,0.0,0.0,48,0.00,,,0.00,Wunderground v.1.15,2013-03-14 08:57:00,
2013-03-14 05:02:00,42.9,25.0,30.19,East,97,0.0,0.0,49,0.00,,,0.00,Wunderground v.1.15,2013-03-14 09:02:00,
2013-03-14 05:07:00,42.8,25.4,30.19,East,97,0.0,0.0,50,0.00,,,0.00,Wunderground v.1.15,2013-03-14 09:07:00,
2013-03-14 05:12:00,42.5,26.1,30.19,East,97,0.0,0.0,52,0.00,,,0.00,Wunderground v.1.15,2013-03-14 09:12:00,
2013-03-14 05:17:00,42.3,25.9,30.18,East,97,0.0,0.0,52,0.00,,,0.00,Wunderground v.1.15,2013-03-14 09:17:00,
2013-03-14 05:22:00,42.1,26.2,30.18,East,97,0.0,0.0,53,0.00,,,0.00,Wunderground v.1.15,2013-03-14 09:22:00,
2013-03-14 05:28:00,41.8,26.4,30.18,East,97,0.0,0.0,54,0.00,,,0.00,Wunderground v.1.15,2013-03-14 09:28:00,
2013-03-14 05:33:00,41.5,27.0,30.19,East,97,0.0,0.0,56,0.00,,,0.00,Wunderground v.1.15,2013-03-14 09:33:00,
2013-03-14 05:38:00,41.1,26.6,30.19,East,97,0.0,0.0,56,0.00,,,0.00,Wunderground v.1.15,2013-03-14 09:38:00,
2013-03-14 05:43:00,40.8,26.7,30.19,East,97,0.0,0.0,57,0.00,,,0.00,Wunderground v.1.15,2013-03-14 09:43:00,
2013-03-14 05:48:00,40.6,26.5,30.20,East,97,0.0,0.0,57,0.00,,,0.00,Wunderground v.1.15,2013-03-14 09:48:00,
2013-03-14 05:53:00,40.3,26.7,30.20,East,97,0.0,0.0,58,0.00,,,0.00,Wunderground v.1.15,2013-03-14 09:53:00,
2013-03-14 05:58:00,40.2,26.6,30.20,East,97,0.0,0.0,58,0.00,,,0.00,Wunderground v.1.15,2013-03-14 09:58:00,
2013-03-14 06:03:00,39.9,26.7,30.21,East,97,0.0,0.0,59,0.00,,,0.00,Wunderground v.1.15,2013-03-14 10:03:00,
2013-03-14 06:08:00,39.6,26.8,30.21,East,97,0.0,0.0,60,0.00,,,0.00,Wunderground v.1.15,2013-03-14 10:08:00,
2013-03-14 06:13:00,39.3,27.4,30.21,East,97,0.0,0.0,62,0.00,,,0.00,Wunderground v.1.15,2013-03-14 10:13:00,
2013-03-14 06:18:00,39.1,27.2,30.22,East,97,0.0,0.0,62,0.00,,,0.00,Wunderground v.1.15,2013-03-14 10:18:00,
2013-03-14 06:23:00,38.8,27.3,30.22,East,97,0.0,0.0,63,0.00,,,0.00,Wunderground v.1.15,2013-03-14 10:23:00,
2013-03-14 06:28:00,38.8,26.5,30.22,East,97,0.0,0.0,61,0.00,,,0.00,Wunderground v.1.15,2013-03-14 10:28:00,
2013-03-14 06:33:00,39.1,26.0,30.23,SSW,204,0.0,7.0,59,0.00,,,0.00,Wunderground v.1.15,2013-03-14 10:33:00,
2013-03-14 06:38:00,39.3,25.7,30.23,WNW,293,0.0,7.0,58,0.00,,,0.00,Wunderground v.1.15,2013-03-14 10:38:00,
2013-03-14 06:43:00,39.5,25.5,30.23,SE,126,0.0,1.0,57,0.00,,,0.00,Wunderground v.1.15,2013-03-14 10:43:00,
2013-03-14 06:49:00,39.6,25.2,30.23,NNW,344,0.0,2.0,56,0.00,,,0.00,Wunderground v.1.15,2013-03-14 10:49:00,
2013-03-14 06:54:00,39.8,24.9,30.23,ESE,113,0.0,1.0,55,0.00,,,0.00,Wunderground v.1.15,2013-03-14 10:54:00,
2013-03-14 06:59:00,39.8,24.9,30.23,ESE,111,0.0,1.0,55,0.00,,,0.00,Wunderground v.1.15,2013-03-14 10:59:00,
2013-03-14 07:04:00,39.8,24.9,30.24,WNW,297,0.0,0.0,55,0.00,,,0.00,Wunderground v.1.15,2013-03-14 11:04:00,
2013-03-14 07:09:00,39.8,24.9,30.24,WNW,298,0.0,2.0,55,0.00,,,0.00,Wunderground v.1.15,2013-03-14 11:09:00,
2013-03-14 07:14:00,39.8,24.9,30.24,WNW,298,0.0,2.0,55,0.00,,,0.00,Wunderground v.1.15,2013-03-14 11:14:00,
2013-03-14 07:19:00,39.6,24.7,30.26,East,88,0.0,3.0,55,0.00,,,0.00,Wunderground v.1.15,2013-03-14 11:19:00,
2013-03-14 07:24:00,39.6,24.7,30.26,SSE,147,1.0,3.0,55,0.00,,,0.00,Wunderground v.1.15,2013-03-14 11:24:00,
2013-03-14 07:29:00,39.5,24.7,30.26,SW,233,0.0,3.0,55,0.00,,,0.00,Wunderground v.1.15,2013-03-14 11:29:00,
2013-03-14 07:34:00,39.5,24.7,30.26,SW,226,0.0,0.0,55,0.00,,,0.00,Wunderground v.1.15,2013-03-14 11:34:00,
2013-03-14 07:39:00,39.3,24.9,30.26,South,177,0.0,1.0,56,0.00,,,0.00,Wunderground v.1.15,2013-03-14 11:39:00,
2013-03-14 07:44:00,39.2,24.8,30.27,WNW,293,0.0,2.0,56,0.00,,,0.00,Wunderground v.1.15,2013-03-14 11:44:00,
2013-03-14 07:49:00,39.1,24.3,30.27,ESE,121,3.0,3.0,55,0.00,,,0.00,Wunderground v.1.15,2013-03-14 11:49:00,
2013-03-14 07:54:00,39.1,24.3,30.27,NW,304,0.0,2.0,55,0.00,,,0.00,Wunderground v.1.15,2013-03-14 11:54:00,
2013-03-14 07:59:00,39.1,24.3,30.28,NW,304,0.0,2.0,55,0.00,,,0.00,Wunderground v.1.15,2013-03-14 11:59:00,
2013-03-14 08:04:00,39.1,24.3,30.28,NW,310,0.0,2.0,55,0.00,,,0.00,Wunderground v.1.15,2013-03-14 12:04:00,
2013-03-14 08:09:00,39.1,23.8,30.28,ESE,121,0.0,2.0,54,0.00,,,0.00,Wunderground v.1.15,2013-03-14 12:09:00,
2013-03-14 08:14:00,39.2,24.4,30.29,NNW,332,0.0,2.0,55,0.00,,,0.00,Wunderground v.1.15,2013-03-14 12:14:00,
2013-03-14 08:19:00,39.3,24.5,30.29,NNW,332,0.0,2.0,55,0.00,,,0.00,Wunderground v.1.15,2013-03-14 12:19:00,
2013-03-14 08:24:00,39.5,24.7,30.29,ESE,106,1.0,3.0,55,0.00,,,0.00,Wunderground v.1.15,2013-03-14 12:24:00,
2013-03-14 08:29:00,39.6,24.7,30.30,East,80,1.0,3.0,55,0.00,,,0.00,Wunderground v.1.15,2013-03-14 12:29:00,
2013-03-14 08:34:00,39.9,24.1,30.30,WNW,300,0.0,2.0,53,0.00,,,0.00,Wunderground v.1.15,2013-03-14 12:34:00,
2013-03-14 08:39:00,40.1,23.4,30.30,ESE,121,1.0,8.0,51,0.00,,,0.00,Wunderground v.1.15,2013-03-14 12:39:00,
2013-03-14 08:44:00,40.3,24.1,30.30,WNW,290,1.0,2.0,52,0.00,,,0.00,Wunderground v.1.15,2013-03-14 12:44:00,
2013-03-14 08:49:00,40.6,23.9,30.30,WSW,246,0.0,2.0,51,0.00,,,0.00,Wunderground v.1.15,2013-03-14 12:49:00,
2013-03-14 08:54:00,40.9,24.1,30.30,WNW,296,2.0,3.0,51,0.00,,,0.00,Wunderground v.1.15,2013-03-14 12:54:00,
2013-03-14 08:59:00,41.1,23.9,30.31,NW,320,2.0,5.0,50,0.00,,,0.00,Wunderground v.1.15,2013-03-14 12:59:00,
2013-03-14 09:04:00,41.3,24.0,30.31,West,267,0.0,5.0,50,0.00,,,0.00,Wunderground v.1.15,2013-03-14 13:04:00,
2013-03-14 09:09:00,41.6,24.3,30.31,WSW,255,0.0,5.0,50,0.00,,,0.00,Wunderground v.1.15,2013-03-14 13:09:00,
2013-03-14 09:15:00,42.2,24.4,30.31,SW,231,1.0,3.0,49,0.00,,,0.00,Wunderground v.1.15,2013-03-14 13:15:00,
2013-03-14 09:20:00,42.5,24.2,30.31,South,178,1.0,7.0,48,0.00,,,0.00,Wunderground v.1.15,2013-03-14 13:20:00,
2013-03-14 09:25:00,42.5,23.2,30.31,WNW,300,1.0,3.0,46,0.00,,,0.00,Wunderground v.1.15,2013-03-14 13:25:00,
2013-03-14 09:30:00,42.5,23.2,30.32,SE,143,7.0,7.0,46,0.00,,,0.00,Wunderground v.1.15,2013-03-14 13:30:00,
2013-03-14 09:35:00,42.8,22.9,30.32,SW,236,1.0,7.0,45,0.00,,,0.00,Wunderground v.1.15,2013-03-14 13:35:00,
2013-03-14 09:40:00,42.9,24.0,30.32,West,270,0.0,2.0,47,0.00,,,0.00,Wunderground v.1.15,2013-03-14 13:40:00,
2013-03-14 09:45:00,43.1,22.6,30.32,West,280,1.0,3.0,44,0.00,,,0.00,Wunderground v.1.15,2013-03-14 13:45:00,
2013-03-14 09:50:00,43.3,22.8,30.32,SSE,159,0.0,1.0,44,0.00,,,0.00,Wunderground v.1.15,2013-03-14 13:50:00,
2013-03-14 09:55:00,43.2,22.2,30.32,West,281,1.0,5.0,43,0.00,,,0.00,Wunderground v.1.15,2013-03-14 13:55:00,
2013-03-14 10:00:00,43.3,22.8,30.32,ESE,112,0.0,1.0,44,0.00,,,0.00,Wunderground v.1.15,2013-03-14 14:00:00,
2013-03-14 10:05:00,44.1,23.6,30.32,East,88,0.0,6.0,44,0.00,,,0.00,Wunderground v.1.15,2013-03-14 14:05:00,
2013-03-14 10:10:00,44.6,22.9,30.32,WNW,283,1.0,1.0,42,0.00,,,0.00,Wunderground v.1.15,2013-03-14 14:10:00,
2013-03-14 10:15:00,44.6,21.1,30.32,NW,310,2.0,3.0,39,0.00,,,0.00,Wunderground v.1.15,2013-03-14 14:15:00,
2013-03-14 10:20:00,44.5,21.6,30.32,WNW,290,0.0,1.0,40,0.00,,,0.00,Wunderground v.1.15,2013-03-14 14:20:00,
2013-03-14 10:25:00,44.5,22.2,30.32,WNW,296,0.0,2.0,41,0.00,,,0.00,Wunderground v.1.15,2013-03-14 14:25:00,
2013-03-14 10:30:00,44.8,22.5,30.32,WSW,250,1.0,2.0,41,0.00,,,0.00,Wunderground v.1.15,2013-03-14 14:30:00,
2013-03-14 10:35:00,45.2,22.9,30.32,SSE,166,0.0,6.0,41,0.00,,,0.00,Wunderground v.1.15,2013-03-14 14:35:00,
2013-03-14 10:40:00,45.7,22.7,30.32,SW,225,0.0,1.0,40,0.00,,,0.00,Wunderground v.1.15,2013-03-14 14:40:00,
2013-03-14 10:45:00,45.8,23.4,30.32,ENE,78,2.0,3.0,41,0.00,,,0.00,Wunderground v.1.15,2013-03-14 14:45:00,
2013-03-14 10:50:00,46.2,22.6,30.32,SE,143,1.0,2.0,39,0.00,,,0.00,Wunderground v.1.15,2013-03-14 14:50:00,
2013-03-14 10:55:00,46.7,23.0,30.32,WNW,296,2.0,6.0,39,0.00,,,0.00,Wunderground v.1.15,2013-03-14 14:55:00,
2013-03-14 11:00:00,46.5,22.2,30.31,West,279,1.0,1.0,38,0.00,,,0.00,Wunderground v.1.15,2013-03-14 15:00:00,
2013-03-14 11:05:00,46.4,21.5,30.31,West,265,1.0,6.0,37,0.00,,,0.00,Wunderground v.1.15,2013-03-14 15:05:00,
2013-03-14 11:10:00,46.5,22.8,30.31,NW,314,2.0,5.0,39,0.00,,,0.00,Wunderground v.1.15,2013-03-14 15:10:00,
2013-03-14 11:15:00,46.7,22.4,30.30,West,280,2.0,5.0,38,0.00,,,0.00,Wunderground v.1.15,2013-03-14 15:15:00,
2013-03-14 11:20:00,47.0,22.7,30.30,South,169,1.0,2.0,38,0.00,,,0.00,Wunderground v.1.15,2013-03-14 15:20:00,
2013-03-14 11:25:00,47.0,22.7,30.30,West,280,1.0,2.0,38,0.00,,,0.00,Wunderground v.1.15,2013-03-14 15:25:00,
2013-03-14 11:30:00,47.3,22.9,30.30,West,270,2.0,2.0,38,0.00,,,0.00,Wunderground v.1.15,2013-03-14 15:30:00,
2013-03-14 11:35:00,47.6,23.2,30.30,South,187,0.0,5.0,38,0.00,,,0.00,Wunderground v.1.15,2013-03-14 15:35:00,
2013-03-14 11:40:00,47.9,24.1,30.30,South,185,0.0,3.0,39,0.00,,,0.00,Wunderground v.1.15,2013-03-14 15:40:00,
2013-03-14 11:45:00,48.2,23.7,30.29,WNW,300,3.0,5.0,38,0.00,,,0.00,Wunderground v.1.15,2013-03-14 15:45:00,
2013-03-14 11:50:00,48.2,23.1,30.29,WSW,255,1.0,2.0,37,0.00,,,0.00,Wunderground v.1.15,2013-03-14 15:50:00,
2013-03-14 11:55:00,48.3,24.5,30.29,SSE,161,0.0,4.0,39,0.00,,,0.00,Wunderground v.1.15,2013-03-14 15:55:00,
2013-03-14 12:01:00,48.6,24.7,30.29,NW,314,1.0,1.0,39,0.00,,,0.00,Wunderground v.1.15,2013-03-14 16:01:00,
2013-03-14 12:05:00,48.6,24.1,30.29,West,269,0.0,3.0,38,0.00,,,0.00,Wunderground v.1.15,2013-03-14 16:05:00,
2013-03-14 12:11:00,48.9,24.4,30.29,NW,304,2.0,4.0,38,0.00,,,0.00,Wunderground v.1.15,2013-03-14 16:11:00,
2013-03-14 12:16:00,48.8,24.3,30.28,West,265,1.0,4.0,38,0.00,,,0.00,Wunderground v.1.15,2013-03-14 16:16:00,
2013-03-14 12:21:00,48.6,24.1,30.28,North,2,0.0,5.0,38,0.00,,,0.00,Wunderground v.1.15,2013-03-14 16:21:00,
2013-03-14 12:26:00,49.2,24.0,30.28,NW,310,0.0,9.0,37,0.00,,,0.00,Wunderground v.1.15,2013-03-14 16:26:00,
2013-03-14 12:31:00,49.6,23.7,30.28,West,274,1.0,10.0,36,0.00,,,0.00,Wunderground v.1.15,2013-03-14 16:31:00,
2013-03-14 12:37:00,49.8,23.9,30.28,WSW,246,0.0,10.0,36,0.00,,,0.00,Wunderground v.1.15,2013-03-14 16:37:00,
2013-03-14 12:42:00,50.1,23.5,30.28,NW,314,2.0,3.0,35,0.00,,,0.00,Wunderground v.1.15,2013-03-14 16:42:00,
2013-03-14 12:47:00,49.9,23.3,30.28,West,269,0.0,4.0,35,0.00,,,0.00,Wunderground v.1.15,2013-03-14 16:47:00,
2013-03-14 12:52:00,50.4,24.4,30.28,NNW,335,2.0,4.0,36,0.00,,,0.00,Wunderground v.1.15,2013-03-14 16:52:00,
2013-03-14 12:57:00,50.5,23.8,30.28,WSW,257,3.0,4.0,35,0.00,,,0.00,Wunderground v.1.15,2013-03-14 16:57:00,
2013-03-14 13:02:00,50.4,25.1,30.27,SE,139,1.0,3.0,37,0.00,,,0.00,Wunderground v.1.15,2013-03-14 17:02:00,
2013-03-14 13:07:00,50.5,23.1,30.27,NW,317,2.0,3.0,34,0.00,,,0.00,Wunderground v.1.15,2013-03-14 17:07:00,
2013-03-14 13:12:00,50.4,23.7,30.27,NW,308,0.0,5.0,35,0.00,,,0.00,Wunderground v.1.15,2013-03-14 17:12:00,
2013-03-14 13:17:00,50.7,24.0,30.27,WNW,298,1.0,5.0,35,0.00,,,0.00,Wunderground v.1.15,2013-03-14 17:17:00,
2013-03-14 13:22:00,50.8,24.1,30.27,WNW,287,0.0,2.0,35,0.00,,,0.00,Wunderground v.1.15,2013-03-14 17:22:00,
2013-03-14 13:27:00,50.7,24.7,30.27,WSW,257,0.0,3.0,36,0.00,,,0.00,Wunderground v.1.15,2013-03-14 17:27:00,
2013-03-14 13:33:00,51.1,23.7,30.26,WNW,300,2.0,4.0,34,0.00,,,0.00,Wunderground v.1.15,2013-03-14 17:33:00,
2013-03-14 13:38:00,51.4,23.9,30.26,NW,310,1.0,4.0,34,0.00,,,0.00,Wunderground v.1.15,2013-03-14 17:38:00,
2013-03-14 13:43:00,51.6,24.8,30.26,ESE,116,3.0,3.0,35,0.00,,,0.00,Wunderground v.1.15,2013-03-14 17:43:00,
2013-03-14 13:48:00,52.0,24.5,30.26,West,259,2.0,6.0,34,0.00,,,0.00,Wunderground v.1.15,2013-03-14 17:48:00,
2013-03-14 13:53:00,52.2,23.9,30.26,NW,305,1.0,3.0,33,0.00,,,0.00,Wunderground v.1.15,2013-03-14 17:53:00,
2013-03-14 13:58:00,52.0,23.0,30.26,WSW,239,2.0,3.0,32,0.00,,,0.00,Wunderground v.1.15,2013-03-14 17:58:00,
2013-03-14 14:03:00,52.2,23.9,30.25,WNW,300,2.0,5.0,33,0.00,,,0.00,Wunderground v.1.15,2013-03-14 18:03:00,
2013-03-14 14:08:00,52.2,23.9,30.25,West,279,2.0,5.0,33,0.00,,,0.00,Wunderground v.1.15,2013-03-14 18:08:00,
2013-03-14 14:13:00,52.0,23.8,30.25,NW,304,0.0,4.0,33,0.00,,,0.00,Wunderground v.1.15,2013-03-14 18:13:00,
2013-03-14 14:18:00,52.3,24.0,30.25,WNW,298,2.0,4.0,33,0.00,,,0.00,Wunderground v.1.15,2013-03-14 18:18:00,
2013-03-14 14:23:00,52.5,23.5,30.25,SSE,154,1.0,2.0,32,0.00,,,0.00,Wunderground v.1.15,2013-03-14 18:23:00,
2013-03-14 14:28:00,52.8,23.7,30.25,NW,313,1.0,4.0,32,0.00,,,0.00,Wunderground v.1.15,2013-03-14 18:28:00,
2013-03-14 14:33:00,52.6,22.8,30.25,West,280,2.0,3.0,31,0.00,,,0.00,Wunderground v.1.15,2013-03-14 18:33:00,
2013-03-14 14:38:00,52.8,23.0,30.25,NW,314,2.0,3.0,31,0.00,,,0.00,Wunderground v.1.15,2013-03-14 18:38:00,
2013-03-14 14:43:00,52.9,21.5,30.25,WNW,300,1.0,5.0,29,0.00,,,0.00,Wunderground v.1.15,2013-03-14 18:43:00,
2013-03-14 14:48:00,53.1,23.2,30.24,SSW,193,0.0,5.0,31,0.00,,,0.00,Wunderground v.1.15,2013-03-14 18:48:00,
2013-03-14 14:53:00,53.5,25.1,30.24,NW,315,1.0,5.0,33,0.00,,,0.00,Wunderground v.1.15,2013-03-14 18:53:00,
2013-03-14 14:58:00,53.8,23.8,30.24,West,265,0.0,5.0,31,0.00,,,0.00,Wunderground v.1.15,2013-03-14 18:58:00,
2013-03-14 15:04:00,53.9,24.7,30.23,SE,143,2.0,4.0,32,0.00,,,0.00,Wunderground v.1.15,2013-03-14 19:04:00,
2013-03-14 15:09:00,54.2,23.4,30.23,SW,225,1.0,8.0,30,0.00,,,0.00,Wunderground v.1.15,2013-03-14 19:09:00,
2013-03-14 15:14:00,54.2,24.2,30.23,WNW,301,3.0,5.0,31,0.00,,,0.00,Wunderground v.1.15,2013-03-14 19:14:00,
2013-03-14 15:19:00,53.8,22.2,30.23,West,280,3.0,5.0,29,0.00,,,0.00,Wunderground v.1.15,2013-03-14 19:19:00,
2013-03-14 15:24:00,54.1,23.3,30.23,WNW,300,1.0,2.0,30,0.00,,,0.00,Wunderground v.1.15,2013-03-14 19:24:00,
2013-03-14 15:29:00,54.1,23.3,30.22,NW,315,2.0,3.0,30,0.00,,,0.00,Wunderground v.1.15,2013-03-14 19:29:00,
2013-03-14 15:34:00,53.9,22.3,30.22,NW,315,2.0,3.0,29,0.00,,,0.00,Wunderground v.1.15,2013-03-14 19:34:00,
2013-03-14 15:39:00,54.1,21.7,30.22,WSW,256,0.0,4.0,28,0.00,,,0.00,Wunderground v.1.15,2013-03-14 19:39:00,
2013-03-14 15:44:00,54.2,23.4,30.21,WNW,291,3.0,3.0,30,0.00,,,0.00,Wunderground v.1.15,2013-03-14 19:44:00,
2013-03-14 15:49:00,54.2,20.9,30.21,NW,305,1.0,4.0,27,0.00,,,0.00,Wunderground v.1.15,2013-03-14 19:49:00,
2013-03-14 15:54:00,54.4,21.9,30.21,SSE,153,1.0,4.0,28,0.00,,,0.00,Wunderground v.1.15,2013-03-14 19:54:00,
2013-03-14 15:59:00,54.5,22.9,30.20,NW,308,0.0,4.0,29,0.00,,,0.00,Wunderground v.1.15,2013-03-14 19:59:00,
2013-03-14 16:04:00,54.7,24.6,30.20,WNW,297,0.0,3.0,31,0.00,,,0.00,Wunderground v.1.15,2013-03-14 20:04:00,
2013-03-14 16:09:00,54.8,23.1,30.20,East,101,5.0,5.0,29,0.00,,,0.00,Wunderground v.1.15,2013-03-14 20:09:00,
2013-03-14 16:14:00,54.7,21.3,30.20,WNW,294,1.0,2.0,27,0.00,,,0.00,Wunderground v.1.15,2013-03-14 20:14:00,
2013-03-14 16:19:00,54.7,22.2,30.20,East,84,0.0,2.0,28,0.00,,,0.00,Wunderground v.1.15,2013-03-14 20:19:00,
2013-03-14 16:24:00,54.7,22.2,30.20,SE,130,0.0,2.0,28,0.00,,,0.00,Wunderground v.1.15,2013-03-14 20:24:00,
2013-03-14 16:29:00,54.8,22.3,30.19,NW,307,2.0,4.0,28,0.00,,,0.00,Wunderground v.1.15,2013-03-14 20:29:00,
2013-03-14 16:35:00,55.1,22.5,30.19,WSW,253,1.0,3.0,28,0.00,,,0.00,Wunderground v.1.15,2013-03-14 20:35:00,
2013-03-14 16:40:00,55.4,22.8,30.19,WSW,249,0.0,3.0,28,0.00,,,0.00,Wunderground v.1.15,2013-03-14 20:40:00,
2013-03-14 16:45:00,55.4,22.8,30.19,WSW,257,0.0,1.0,28,0.00,,,0.00,Wunderground v.1.15,2013-03-14 20:45:00,
2013-03-14 16:50:00,55.4,22.8,30.19,West,279,0.0,0.0,28,0.00,,,0.00,Wunderground v.1.15,2013-03-14 20:50:00,
2013-03-14 16:55:00,55.4,22.8,30.19,NW,315,0.0,4.0,28,0.00,,,0.00,Wunderground v.1.15,2013-03-14 20:55:00,
2013-03-14 17:00:00,55.3,22.7,30.19,WSW,255,0.0,1.0,28,0.00,,,0.00,Wunderground v.1.15,2013-03-14 21:00:00,
2013-03-14 17:05:00,55.3,22.7,30.19,NW,317,3.0,3.0,28,0.00,,,0.00,Wunderground v.1.15,2013-03-14 21:05:00,
2013-03-14 17:10:00,55.4,21.9,30.19,WNW,296,0.0,1.0,27,0.00,,,0.00,Wunderground v.1.15,2013-03-14 21:10:00,
2013-03-14 17:15:00,55.4,21.0,30.18,WSW,249,1.0,4.0,26,0.00,,,0.00,Wunderground v.1.15,2013-03-14 21:15:00,
2013-03-14 17:20:00,55.4,22.8,30.18,SSE,157,0.0,1.0,28,0.00,,,0.00,Wunderground v.1.15,2013-03-14 21:20:00,
2013-03-14 17:25:00,55.4,21.9,30.18,SE,132,0.0,5.0,27,0.00,,,0.00,Wunderground v.1.15,2013-03-14 21:25:00,
2013-03-14 17:30:00,55.4,21.9,30.18,WNW,298,1.0,1.0,27,0.00,,,0.00,Wunderground v.1.15,2013-03-14 21:30:00,
2013-03-14 17:35:00,55.4,22.8,30.18,NNW,337,0.0,3.0,28,0.00,,,0.00,Wunderground v.1.15,2013-03-14 21:35:00,
2013-03-14 17:40:00,55.4,21.9,30.18,East,98,0.0,0.0,27,0.00,,,0.00,Wunderground v.1.15,2013-03-14 21:40:00,
2013-03-14 17:45:00,55.4,21.9,30.18,SE,126,1.0,2.0,27,0.00,,,0.00,Wunderground v.1.15,2013-03-14 21:45:00,
2013-03-14 17:50:00,55.4,22.8,30.18,ESE,113,0.0,0.0,28,0.00,,,0.00,Wunderground v.1.15,2013-03-14 21:50:00,
2013-03-14 17:55:00,55.6,22.1,30.18,ESE,113,0.0,0.0,27,0.00,,,0.00,Wunderground v.1.15,2013-03-14 21:55:00,
2013-03-14 18:00:00,55.7,23.1,30.18,NW,325,0.0,0.0,28,0.00,,,0.00,Wunderground v.1.15,2013-03-14 22:00:00,
2013-03-14 18:05:00,55.9,23.2,30.18,WSW,249,1.0,2.0,28,0.00,,,0.00,Wunderground v.1.15,2013-03-14 22:05:00,
2013-03-14 18:11:00,55.7,23.1,30.18,WSW,250,0.0,1.0,28,0.00,,,0.00,Wunderground v.1.15,2013-03-14 22:11:00,
2013-03-14 18:16:00,55.7,23.1,30.18,WSW,250,0.0,1.0,28,0.00,,,0.00,Wunderground v.1.15,2013-03-14 22:16:00,
2013-03-14 18:21:00,55.6,23.0,30.18,WSW,250,0.0,2.0,28,0.00,,,0.00,Wunderground v.1.15,2013-03-14 22:21:00,
2013-03-14 18:26:00,55.4,23.6,30.18,WSW,250,0.0,2.0,29,0.00,,,0.00,Wunderground v.1.15,2013-03-14 22:26:00,
2013-03-14 18:31:00,55.1,21.7,30.18,WSW,250,0.0,1.0,27,0.00,,,0.00,Wunderground v.1.15,2013-03-14 22:31:00,
2013-03-14 18:36:00,55.0,22.4,30.18,WSW,250,0.0,1.0,28,0.00,,,0.00,Wunderground v.1.15,2013-03-14 22:36:00,
2013-03-14 18:41:00,54.8,22.3,30.18,West,269,0.0,2.0,28,0.00,,,0.00,Wunderground v.1.15,2013-03-14 22:41:00,
2013-03-14 18:46:00,54.5,22.0,30.19,West,269,0.0,2.0,28,0.00,,,0.00,Wunderground v.1.15,2013-03-14 22:46:00,
2013-03-14 18:51:00,54.4,22.8,30.19,West,267,0.0,2.0,29,0.00,,,0.00,Wunderground v.1.15,2013-03-14 22:51:00,
2013-03-14 18:57:00,54.1,23.3,30.19,WSW,242,0.0,2.0,30,0.00,,,0.00,Wunderground v.1.15,2013-03-14 22:57:00,
2013-03-14 19:02:00,53.9,23.1,30.20,WSW,242,0.0,1.0,30,0.00,,,0.00,Wunderground v.1.15,2013-03-14 23:02:00,
2013-03-14 19:07:00,53.6,23.7,30.20,WSW,242,0.0,1.0,31,0.00,,,0.00,Wunderground v.1.15,2013-03-14 23:07:00,
2013-03-14 19:12:00,53.5,23.6,30.20,WSW,257,0.0,0.0,31,0.00,,,0.00,Wunderground v.1.15,2013-03-14 23:12:00,
2013-03-14 19:17:00,53.3,23.4,30.21,WSW,257,0.0,0.0,31,0.00,,,0.00,Wunderground v.1.15,2013-03-14 23:17:00,
2013-03-14 19:22:00,53.2,24.1,30.21,WSW,257,0.0,0.0,32,0.00,,,0.00,Wunderground v.1.15,2013-03-14 23:22:00,
2013-03-14 19:27:00,52.9,23.0,30.21,WSW,257,0.0,0.0,31,0.00,,,0.00,Wunderground v.1.15,2013-03-14 23:27:00,
2013-03-14 19:32:00,52.6,23.5,30.21,WSW,257,0.0,0.0,32,0.00,,,0.00,Wunderground v.1.15,2013-03-14 23:32:00,
2013-03-14 19:37:00,52.5,23.5,30.21,WSW,257,0.0,0.0,32,0.00,,,0.00,Wunderground v.1.15,2013-03-14 23:37:00,
2013-03-14 19:42:00,52.2,23.2,30.21,WSW,257,0.0,0.0,32,0.00,,,0.00,Wunderground v.1.15,2013-03-14 23:42:00,
2013-03-14 19:47:00,52.0,24.5,30.21,WSW,257,0.0,0.0,34,0.00,,,0.00,Wunderground v.1.15,2013-03-14 23:47:00,
2013-03-14 19:52:00,51.7,24.9,30.21,WSW,257,0.0,0.0,35,0.00,,,0.00,Wunderground v.1.15,2013-03-14 23:52:00,
2013-03-14 19:57:00,51.4,25.3,30.21,WSW,257,0.0,0.0,36,0.00,,,0.00,Wunderground v.1.15,2013-03-14 23:57:00,
2013-03-14 20:02:00,51.1,25.0,30.21,WSW,257,0.0,0.0,36,0.00,,,0.00,Wunderground v.1.15,2013-03-15 00:02:00,
2013-03-14 20:07:00,50.8,26.1,30.21,WSW,257,0.0,0.0,38,0.00,,,0.00,Wunderground v.1.15,2013-03-15 00:07:00,
2013-03-14 20:12:00,50.5,25.8,30.21,WSW,257,0.0,0.0,38,0.00,,,0.00,Wunderground v.1.15,2013-03-15 00:12:00,
2013-03-14 20:17:00,50.1,26.1,30.21,WSW,257,0.0,0.0,39,0.00,,,0.00,Wunderground v.1.15,2013-03-15 00:17:00,
2013-03-14 20:22:00,49.8,27.0,30.21,WSW,257,0.0,0.0,41,0.00,,,0.00,Wunderground v.1.15,2013-03-15 00:22:00,
2013-03-14 20:28:00,49.5,26.7,30.21,WSW,257,0.0,0.0,41,0.00,,,0.00,Wunderground v.1.15,2013-03-15 00:28:00,
2013-03-14 20:33:00,49.2,27.6,30.21,WSW,257,0.0,0.0,43,0.00,,,0.00,Wunderground v.1.15,2013-03-15 00:33:00,
2013-03-14 20:38:00,48.8,28.4,30.21,WSW,257,0.0,0.0,45,0.00,,,0.00,Wunderground v.1.15,2013-03-15 00:38:00,
2013-03-14 20:43:00,48.3,28.5,30.21,WSW,257,0.0,0.0,46,0.00,,,0.00,Wunderground v.1.15,2013-03-15 00:43:00,
2013-03-14 20:48:00,48.0,28.7,30.21,WSW,257,0.0,0.0,47,0.00,,,0.00,Wunderground v.1.15,2013-03-15 00:48:00,
2013-03-14 20:53:00,47.7,28.9,30.21,WSW,257,0.0,0.0,48,0.00,,,0.00,Wunderground v.1.15,2013-03-15 00:53:00,
2013-03-14 20:58:00,47.6,28.9,30.21,West,259,0.0,0.0,48,0.00,,,0.00,Wunderground v.1.15,2013-03-15 00:58:00,
2013-03-14 21:03:00,47.3,30.1,30.21,WSW,257,0.0,0.0,51,0.00,,,0.00,Wunderground v.1.15,2013-03-15 01:03:00,
2013-03-14 21:08:00,47.0,30.3,30.21,WSW,257,0.0,0.0,52,0.00,,,0.00,Wunderground v.1.15,2013-03-15 01:08:00,
2013-03-14 21:13:00,46.8,31.0,30.21,WSW,257,0.0,0.0,54,0.00,,,0.00,Wunderground v.1.15,2013-03-15 01:13:00,
2013-03-14 21:18:00,46.5,31.2,30.21,West,259,0.0,0.0,55,0.00,,,0.00,Wunderground v.1.15,2013-03-15 01:18:00,
2013-03-14 21:24:00,46.2,31.8,30.21,WSW,257,0.0,0.0,57,0.00,,,0.00,Wunderground v.1.15,2013-03-15 01:24:00,
2013-03-14 21:28:00,46.1,31.7,30.21,WSW,257,0.0,0.0,57,0.00,,,0.00,Wunderground v.1.15,2013-03-15 01:28:00,
2013-03-14 21:33:00,45.8,31.9,30.21,WSW,257,0.0,0.0,58,0.00,,,0.00,Wunderground v.1.15,2013-03-15 01:33:00,
2013-03-14 21:39:00,45.7,32.6,30.21,WSW,257,0.0,0.0,60,0.00,,,0.00,Wunderground v.1.15,2013-03-15 01:39:00,
2013-03-14 21:44:00,45.5,32.8,30.21,WSW,257,0.0,0.0,61,0.00,,,0.00,Wunderground v.1.15,2013-03-15 01:44:00,
2013-03-14 21:49:00,45.2,32.9,30.21,WSW,257,0.0,0.0,62,0.00,,,0.00,Wunderground v.1.15,2013-03-15 01:49:00,
2013-03-14 21:54:00,45.1,33.6,30.21,WSW,257,0.0,0.0,64,0.00,,,0.00,Wunderground v.1.15,2013-03-15 01:54:00,
2013-03-14 21:59:00,44.8,33.7,30.21,WSW,257,0.0,0.0,65,0.00,,,0.00,Wunderground v.1.15,2013-03-15 01:59:00,
2013-03-14 22:04:00,44.6,33.9,30.21,WSW,257,0.0,0.0,66,0.00,,,0.00,Wunderground v.1.15,2013-03-15 02:04:00,
2013-03-14 22:09:00,44.5,33.8,30.21,WSW,257,0.0,0.0,66,0.00,,,0.00,Wunderground v.1.15,2013-03-15 02:09:00,
2013-03-14 22:14:00,44.3,34.0,30.21,WSW,257,0.0,0.0,67,0.00,,,0.00,Wunderground v.1.15,2013-03-15 02:14:00,
2013-03-14 22:19:00,44.2,34.7,30.21,WSW,257,0.0,0.0,69,0.00,,,0.00,Wunderground v.1.15,2013-03-15 02:19:00,
2013-03-14 22:24:00,44.1,34.6,30.21,WSW,257,0.0,0.0,69,0.00,,,0.00,Wunderground v.1.15,2013-03-15 02:24:00,
2013-03-14 22:29:00,43.8,34.3,30.21,WSW,257,0.0,0.0,69,0.00,,,0.00,Wunderground v.1.15,2013-03-15 02:29:00,
2013-03-14 22:34:00,43.6,34.1,30.21,WSW,257,0.0,0.0,69,0.00,,,0.00,Wunderground v.1.15,2013-03-15 02:34:00,
2013-03-14 22:39:00,43.5,34.4,30.21,WSW,257,0.0,0.0,70,0.00,,,0.00,Wunderground v.1.15,2013-03-15 02:39:00,
2013-03-14 22:44:00,43.3,34.5,30.21,WSW,257,0.0,0.0,71,0.00,,,0.00,Wunderground v.1.15,2013-03-15 02:44:00,
2013-03-14 22:49:00,43.1,34.7,30.21,WSW,257,0.0,0.0,72,0.00,,,0.00,Wunderground v.1.15,2013-03-15 02:49:00,
2013-03-14 22:54:00,42.9,34.5,30.21,WSW,257,0.0,0.0,72,0.00,,,0.00,Wunderground v.1.15,2013-03-15 02:54:00,
2013-03-14 22:59:00,42.9,34.5,30.21,WSW,257,0.0,0.0,72,0.00,,,0.00,Wunderground v.1.15,2013-03-15 02:59:00,
2013-03-14 23:04:00,42.8,34.7,30.21,WSW,257,0.0,0.0,73,0.00,,,0.00,Wunderground v.1.15,2013-03-15 03:04:00,
2013-03-14 23:09:00,42.6,35.2,30.21,WSW,257,0.0,0.0,75,0.00,,,0.00,Wunderground v.1.15,2013-03-15 03:09:00,
2013-03-14 23:14:00,42.5,35.1,30.22,WSW,257,0.0,0.0,75,0.00,,,0.00,Wunderground v.1.15,2013-03-15 03:14:00,
2013-03-14 23:20:00,42.3,35.3,30.22,WSW,257,0.0,0.0,76,0.00,,,0.00,Wunderground v.1.15,2013-03-15 03:20:00,
2013-03-14 23:25:00,42.3,35.6,30.22,WSW,257,0.0,0.0,77,0.00,,,0.00,Wunderground v.1.15,2013-03-15 03:25:00,
2013-03-14 23:30:00,42.2,35.2,30.23,WSW,257,0.0,0.0,76,0.00,,,0.00,Wunderground v.1.15,2013-03-15 03:30:00,
2013-03-14 23:35:00,42.2,35.5,30.23,WSW,257,0.0,0.0,77,0.00,,,0.00,Wunderground v.1.15,2013-03-15 03:35:00,
2013-03-14 23:40:00,42.1,35.7,30.23,WSW,257,0.0,0.0,78,0.00,,,0.00,Wunderground v.1.15,2013-03-15 03:40:00,
2013-03-14 23:45:00,42.1,35.4,30.23,WSW,257,0.0,0.0,77,0.00,,,0.00,Wunderground v.1.15,2013-03-15 03:45:00,
2013-03-14 23:50:00,41.9,35.2,30.23,WSW,257,0.0,0.0,77,0.00,,,0.00,Wunderground v.1.15,2013-03-15 03:50:00,
2013-03-14 23:55:00,41.9,35.2,30.23,WSW,257,0.0,0.0,77,0.00,,,0.00,Wunderground v.1.15,2013-03-15 03:55:00,